, OR

(GMT )
Tillamook

Weather History for KTMK - November, 2013

Change the Weather History Date:

Thursday, November 21, 2013

  Actual Average Record
Temperature  
Mean Temperature 38 °F -  
Max Temperature 50 °F - - ()
Min Temperature 26 °F - - ()
Degree Days  
Heating Degree Days 27    
Moisture  
Dew Point 24 °F    
Average Humidity 73    
Maximum Humidity 100    
Minimum Humidity 20    
Precipitation  
Precipitation 0.00 in - - ()
Sea Level Pressure  
Sea Level Pressure 30.51 in    
Wind  
Wind Speed 1 mph (NE)    
Max Wind Speed 12 mph    
Max Gust Speed -    
Visibility 10 miles    
Events      
Averages and records for this station are not official NWS values.
T = Trace of Precipitation, MM = Missing Value Source: NWS Daily Summary

Daily Weather History Graph

Daily Weather History Graph

Search for Another Location

Airport or City:

Trip Planner

Search our weather history database for the weather conditions in past years. The results will help you decide how hot, cold, wet, or windy it might be!

Date:

Astronomy

Nov. 21, 2013 Rise Set
Actual Time 8:22 AM MST 5:39 PM MST
Civil Twilight 7:50 AM MST 6:12 PM MST
Nautical Twilight 7:13 AM MST 6:48 PM MST
Astronomical Twilight 6:38 AM MST 7:23 PM MST
Moon 9:23 PM MST (11/21) 11:31 AM MST (11/21)
Length of Visible Light 10h 22m
Length of Day
9h 16m
Waning Gibbous, 85% of the Moon is Illuminated
Nov 21
Waning Gibbous
Nov 25
Last Quarter
Dec 2
New
Dec 9
First Quarter
Dec 17
Full

Hourly Weather History & Observations

Time (MST) Temp. Windchill Dew Point Humidity Pressure Visibility Wind Dir Wind Speed Gust Speed Precip Events Conditions
12:15 AM 30.2 °F - 28.4 °F 93% 30.40 in 10.0 mi Calm Calm - N/A   Clear
12:35 AM 30.2 °F - 28.4 °F 93% 30.41 in 10.0 mi Calm Calm - N/A   Clear
12:55 AM 30.2 °F - 30.2 °F 100% 30.42 in 10.0 mi Calm Calm - N/A   Clear
1:15 AM 30.2 °F - 30.2 °F 100% 30.42 in 10.0 mi Calm Calm - N/A   Clear
1:35 AM 28.4 °F - 28.4 °F 100% 30.42 in 10.0 mi Calm Calm - N/A   Clear
1:55 AM 28.4 °F - 28.4 °F 100% 30.43 in 10.0 mi Calm Calm - N/A   Clear
2:15 AM 30.2 °F - 28.4 °F 93% 30.44 in 10.0 mi Calm Calm - N/A   Clear
2:35 AM 30.2 °F - 28.4 °F 93% 30.44 in 10.0 mi Calm Calm - N/A   Clear
2:55 AM 28.4 °F - 28.4 °F 100% 30.45 in 10.0 mi Calm Calm - N/A   Clear
3:15 AM 28.4 °F - 28.4 °F 100% 30.45 in 10.0 mi Calm Calm - N/A   Clear
3:35 AM 28.4 °F - 28.4 °F 100% 30.46 in 10.0 mi Calm Calm - N/A   Clear
3:55 AM 28.4 °F - 26.6 °F 93% 30.46 in 10.0 mi Calm Calm - N/A   Clear
4:15 AM 28.4 °F - 26.6 °F 93% 30.46 in 10.0 mi Calm Calm - N/A   Clear
4:35 AM 30.2 °F - 26.6 °F 86% 30.45 in 10.0 mi Calm Calm - N/A   Clear
4:55 AM 30.2 °F - 26.6 °F 86% 30.46 in 10.0 mi Calm Calm - N/A   Clear
5:15 AM 28.4 °F - 26.6 °F 93% 30.47 in 10.0 mi Calm Calm - N/A   Clear
5:35 AM 26.6 °F - 26.6 °F 100% 30.47 in 10.0 mi Calm Calm - N/A   Clear
5:55 AM 28.4 °F - 24.8 °F 86% 30.48 in 10.0 mi Calm Calm - N/A   Clear
6:15 AM 28.4 °F - 24.8 °F 86% 30.48 in 10.0 mi Calm Calm - N/A   Clear
6:35 AM 28.4 °F - 24.8 °F 86% 30.49 in 10.0 mi Calm Calm - N/A   Clear
6:55 AM 28.4 °F - 24.8 °F 86% 30.49 in 10.0 mi Calm Calm - N/A   Clear
7:15 AM 28.4 °F - 26.6 °F 93% 30.50 in 10.0 mi Calm Calm - N/A   Clear
7:35 AM 26.6 °F - 24.8 °F 93% 30.50 in 10.0 mi Calm Calm - N/A   Clear
7:55 AM 26.6 °F - 24.8 °F 93% 30.51 in 10.0 mi Calm Calm - N/A   Clear
8:15 AM 26.6 °F - 24.8 °F 93% 30.52 in 10.0 mi Calm Calm - N/A   Clear
8:35 AM 26.6 °F - 24.8 °F 93% 30.52 in 10.0 mi Calm Calm - N/A   Clear
8:55 AM 26.6 °F - 23.0 °F 86% 30.53 in 10.0 mi Calm Calm - N/A   Clear
9:15 AM 26.6 °F - 24.8 °F 93% 30.54 in 10.0 mi Calm Calm - N/A   Clear
9:35 AM 28.4 °F - 26.6 °F 93% 30.54 in 10.0 mi Calm Calm - N/A   Clear
9:55 AM 30.2 °F - 26.6 °F 86% 30.55 in 10.0 mi Calm Calm - N/A   Clear
10:15 AM 32.0 °F - 26.6 °F 80% 30.56 in 10.0 mi Calm Calm - N/A   Clear
10:35 AM 32.0 °F - 28.4 °F 87% 30.56 in 10.0 mi Calm Calm - N/A   Clear
10:55 AM 33.8 °F - 28.4 °F 81% 30.57 in 10.0 mi Calm Calm - N/A   Clear
11:15 AM 35.6 °F - 30.2 °F 81% 30.57 in 10.0 mi Calm Calm - N/A   Clear
11:35 AM 37.4 °F - 32.0 °F 81% 30.57 in 10.0 mi Calm Calm - N/A   Clear
11:55 AM 41.0 °F - 23.0 °F 49% 30.56 in 10.0 mi Calm Calm - N/A   Clear
12:15 PM 44.6 °F - 19.4 °F 37% 30.54 in 10.0 mi Calm Calm - N/A   Clear
12:35 PM 44.6 °F - 12.2 °F 27% 30.54 in 10.0 mi Calm Calm - N/A   Clear
12:55 PM 46.4 °F 42.9 °F 10.4 °F 23% 30.53 in 10.0 mi NE 6.9 mph - N/A   Clear
1:15 PM 46.4 °F - 14.0 °F 27% 30.53 in 10.0 mi Calm Calm - N/A   Clear
1:35 PM 48.2 °F - 14.0 °F 25% 30.53 in 10.0 mi NNE 9.2 mph - N/A   Clear
1:55 PM 48.2 °F - 12.2 °F 24% 30.53 in 10.0 mi NNE 10.4 mph - N/A   Clear
2:15 PM 50.0 °F - 10.4 °F 20% 30.52 in 10.0 mi NE 6.9 mph - N/A   Clear
2:35 PM 50.0 °F - 12.2 °F 22% 30.52 in 10.0 mi NNE 8.1 mph - N/A   Clear
2:55 PM 50.0 °F - 14.0 °F 24% 30.53 in 10.0 mi Calm Calm - N/A   Clear
3:15 PM 50.0 °F - 14.0 °F 24% 30.53 in 10.0 mi NNE 6.9 mph - N/A   Clear
3:35 PM 50.0 °F - 14.0 °F 24% 30.51 in 10.0 mi NE 11.5 mph - N/A   Clear
3:55 PM 50.0 °F - 14.0 °F 24% 30.51 in 10.0 mi NNE 9.2 mph - N/A   Clear
4:15 PM 50.0 °F - 12.2 °F 22% 30.51 in 10.0 mi NE 10.4 mph - N/A   Clear
4:35 PM 48.2 °F - 17.6 °F 30% 30.52 in 10.0 mi NE 6.9 mph - N/A   Clear
4:55 PM 46.4 °F - 21.2 °F 37% 30.52 in 10.0 mi Calm Calm - N/A   Clear
5:15 PM 44.6 °F 39.2 °F 21.2 °F 39% 30.52 in 10.0 mi NE 10.4 mph - N/A   Clear
5:35 PM 42.8 °F 38.6 °F 19.4 °F 39% 30.53 in 10.0 mi NE 6.9 mph - N/A   Clear
5:55 PM 41.0 °F - 17.6 °F 39% 30.53 in 10.0 mi Calm Calm - N/A   Clear
6:15 PM 41.0 °F 35.8 °F 19.4 °F 42% 30.53 in 10.0 mi North 8.1 mph - N/A   Clear
6:35 PM 37.4 °F - 21.2 °F 52% 30.53 in 10.0 mi Calm Calm - N/A   Clear
6:55 PM 33.8 °F - 26.6 °F 75% 30.54 in 10.0 mi Calm Calm - N/A   Clear
7:15 PM 32.0 °F - 28.4 °F 87% 30.54 in 10.0 mi Calm Calm - N/A   Clear
7:35 PM 33.8 °F - 28.4 °F 81% 30.55 in 10.0 mi Calm Calm - N/A   Clear
7:55 PM 32.0 °F - 28.4 °F 87% 30.55 in 10.0 mi Calm Calm - N/A   Clear
8:15 PM 32.0 °F - 28.4 °F 87% 30.54 in 10.0 mi Calm Calm - N/A   Clear
8:35 PM 32.0 °F - 28.4 °F 87% 30.53 in 10.0 mi Calm Calm - N/A   Clear
8:55 PM 32.0 °F - 26.6 °F 80% 30.53 in 10.0 mi Calm Calm - N/A   Clear
9:15 PM 32.0 °F - 28.4 °F 87% 30.53 in 10.0 mi Calm Calm - N/A   Clear
9:35 PM 32.0 °F - 28.4 °F 87% 30.52 in 10.0 mi Calm Calm - N/A   Clear
9:55 PM 32.0 °F - 28.4 °F 87% 30.52 in 10.0 mi Calm Calm - N/A   Clear
10:15 PM 30.2 °F - 28.4 °F 93% 30.53 in 10.0 mi Calm Calm - N/A   Clear
10:35 PM 30.2 °F - 28.4 °F 93% 30.54 in 10.0 mi Calm Calm - N/A   Clear
10:55 PM 30.2 °F - 26.6 °F 86% 30.54 in 10.0 mi Calm Calm - N/A   Clear
11:15 PM 30.2 °F - 26.6 °F 86% 30.55 in 10.0 mi Calm Calm - N/A   Clear
11:35 PM 30.2 °F - 26.6 °F 86% 30.54 in 10.0 mi Calm Calm - N/A   Clear
11:55 PM 28.4 °F - 26.6 °F 93% 30.53 in 10.0 mi Calm Calm - N/A   Clear